Theta_e
341 341 343 341 340 339 337 338 338 341 341 337 338 346 347 341 334 339 347 357 357 357 358 358 357 356 356 356 355 354 354 353 352 351 350 349 349 348 347 346 346 346 347
342 339 335 339 337 337 338 336 340 340 340 336 338 342 348 345 343 342 349 352 356 356 358 357 356 355 357 357 356 355 354 353 353 351 351 350 350 349 348 347 348 347 346
342 339 335 336 338 340 337 341 338 336 339 342 338 339 344 343 339 345 349 349 350 353 354 354 354 354 353 355 354 354 353 352 351 351 349 349 349 348 348 348 347 347 347
344 341 337 338 340 338 336 339 339 336 335 336 338 346 347 344 347 348 346 345 343 345 350 350 349 349 349 350 350 351 350 349 349 349 349 349 349 348 347 347 347 346 345
345 342 338 337 341 337 337 336 334 335 335 342 343 343 343 344 343 346 344 341 339 338 340 346 345 344 345 346 346 347 346 345 345 345 345 346 346 346 346 344 343 341 340
344 340 341 338 339 343 338 336 336 335 332 336 341 340 341 339 339 338 338 338 335 334 334 334 334 337 340 341 341 343 343 343 342 342 341 340 340 339 338 337 336 335 333
343 340 339 340 342 341 336 336 337 338 335 337 332 329 332 336 335 335 335 336 335 335 332 329 328 328 331 335 335 337 338 339 339 338 337 336 336 335 333 332 330 329 328
344 343 339 337 336 340 341 338 338 334 335 334 328 324 320 323 330 332 331 333 333 334 333 329 326 324 323 322 324 332 333 334 334 333 332 331 331 330 329 327 326 325 325
340 344 343 339 338 341 339 339 339 336 332 332 332 326 318 316 319 328 329 329 329 330 334 332 326 323 320 319 323 327 330 330 331 330 328 327 327 327 326 325 325 323 321
329 336 341 342 340 340 339 338 342 336 334 331 330 333 327 325 317 316 326 330 330 330 327 326 325 320 318 316 323 326 327 327 327 327 326 326 326 325 324 322 320 319 319
330 334 337 333 334 337 336 336 336 337 337 332 330 330 327 326 323 318 314 321 324 329 323 320 320 318 316 314 313 319 323 325 326 325 325 325 324 324 320 318 317 317 316
329 330 334 330 330 330 328 334 334 334 334 335 332 332 330 326 324 320 316 321 323 317 319 317 317 316 313 313 318 321 321 322 322 324 325 324 322 319 317 315 314 314 314
320 317 321 327 328 327 328 330 331 330 330 330 332 331 329 328 327 326 320 317 318 315 316 317 315 316 315 312 314 319 319 318 318 320 321 321 317 315 314 312 311 310 309
310 312 312 312 313 316 319 320 323 325 325 324 324 326 326 325 325 326 323 319 314 314 314 312 315 315 312 312 316 320 314 315 316 317 318 317 315 313 311 310 309 307 307
309 308 309 310 310 311 313 313 313 315 316 317 320 319 323 325 322 322 322 325 320 310 308 310 311 315 312 314 317 310 308 315 314 317 316 315 314 312 310 309 308 307 308
305 304 306 306 307 308 310 310 310 311 310 310 311 312 315 317 321 320 320 324 323 316 311 312 312 312 312 313 317 308 308 314 314 314 315 314 313 313 311 310 309 308 308
302 305 304 303 304 306 306 307 307 307 307 308 308 309 309 313 314 316 319 319 320 318 312 307 309 308 306 308 312 309 311 308 308 313 311 313 314 313 313 312 311 309 308
301 301 303 304 303 304 305 304 304 305 305 305 306 307 308 310 309 311 314 315 316 319 311 303 307 307 305 305 304 305 307 306 303 311 313 312 313 312 312 311 310 310 310
300 303 301 301 304 304 303 303 302 302 302 302 303 303 304 306 305 308 309 312 312 310 309 306 304 307 308 308 308 309 309 308 311 312 313 313 312 312 310 309 309 308 308
299 299 300 302 304 304 303 302 301 301 301 302 303 304 304 304 304 304 306 308 308 307 306 304 304 304 306 307 307 305 303 307 307 312 313 311 311 312 311 310 310 309 307
301 303 299 299 301 303 302 301 301 300 300 301 302 304 305 307 308 307 305 305 307 306 305 303 301 302 303 304 303 305 305 307 308 309 307 306 306 306 307 311 310 311 309
303 302 299 298 297 301 303 302 301 300 301 301 301 303 305 308 308 307 308 309 306 303 302 300 301 299 301 303 305 305 305 302 301 308 308 305 306 304 305 305 308 308 308
303 303 302 298 298 298 302 302 302 301 301 301 301 302 304 307 307 306 306 308 307 306 307 303 301 302 302 304 306 305 305 305 304 305 304 300 302 300 302 304 307 306 307
303 303 304 302 302 300 301 300 301 302 302 303 303 303 303 303 305 305 305 305 305 305 306 308 305 306 308 307 308 308 306 305 304 304 303 298 301 300 302 302 306 306 305
301 302 304 304 302 298 300 300 301 302 303 302 304 304 304 302 303 303 304 303 303 305 307 307 308 307 305 304 305 302 300 299 297 298 301 299 300 299 301 302 302 305 305
301 302 302 303 304 300 300 300 301 302 300 301 302 303 304 304 302 301 301 302 300 302 304 305 304 304 301 301 303 301 300 298 296 295 299 295 295 296 293 296 297 298 299
Wind_Speed
7 7 6 5 5 4 5 5 4 5 5 7 8 13 5 6 6 4 3 12 9 10 10 12 12 12 13 12 11 11 10 11 9 9 8 7 7 7 6 6 6 6 4
5 7 6 6 5 5 5 4 5 7 8 6 5 11 16 8 7 2 3 5 10 10 10 8 8 5 9 13 11 11 11 11 11 10 9 8 7 6 6 6 6 6 6
7 6 4 4 5 6 7 3 4 4 5 7 4 7 12 13 10 9 8 7 8 13 13 12 14 10 10 11 10 9 8 8 7 8 8 8 8 6 5 5 7 6 5
7 6 4 4 4 4 4 5 4 0 4 5 5 11 11 10 10 10 9 7 5 5 11 16 15 11 12 14 14 14 14 14 15 14 13 11 11 10 10 12 13 14 15
7 6 4 4 3 2 4 2 2 4 4 6 7 7 7 8 9 9 11 9 7 5 5 14 17 13 12 12 13 15 16 16 16 16 16 17 17 18 18 18 18 16 15
8 6 4 4 3 3 3 5 6 3 4 8 6 7 7 5 7 8 9 8 7 6 5 6 6 8 14 13 11 13 15 16 17 17 17 18 18 20 19 19 17 15 16
8 8 6 5 3 4 5 5 4 6 3 8 7 4 5 4 6 5 6 8 10 10 7 6 5 4 7 14 12 10 11 13 14 16 16 16 17 18 18 18 16 16 15
9 11 10 9 7 3 4 4 4 3 4 6 5 4 4 1 2 5 5 7 9 9 10 8 7 6 5 4 8 11 12 13 14 15 16 16 16 16 17 18 17 15 14
11 10 12 11 9 6 4 4 5 6 4 4 7 7 3 5 3 3 5 5 7 6 8 11 10 9 7 5 8 10 13 14 15 15 16 16 16 15 15 15 15 14 13
14 16 14 8 9 4 6 5 5 5 5 6 0 4 3 7 5 2 2 6 6 8 7 8 11 10 9 5 10 12 12 12 14 15 15 15 15 15 15 13 12 11 11
6 10 12 9 12 10 5 6 5 6 5 5 5 3 2 1 3 5 3 4 2 7 7 7 11 10 9 7 5 10 12 10 12 12 13 14 13 13 12 11 10 9 9
6 10 8 11 5 5 7 12 6 6 5 6 4 4 6 6 5 4 3 7 11 4 7 5 9 9 8 9 12 17 14 11 8 8 11 13 13 11 11 10 9 7 7
6 10 10 7 6 0 5 6 10 6 4 4 6 4 3 4 1 3 5 4 5 2 3 2 6 9 8 7 9 15 17 13 10 10 12 13 12 10 9 7 6 5 4
5 5 4 8 12 10 7 3 4 4 5 3 5 3 3 3 2 3 5 6 2 2 2 6 4 8 10 10 13 20 10 14 11 10 11 12 12 11 9 7 6 4 4
5 6 7 7 7 7 5 4 3 4 4 4 4 3 3 2 3 3 3 7 7 6 8 7 5 11 11 12 15 11 9 17 16 13 12 11 11 10 8 7 6 6 6
4 5 4 4 4 4 4 5 3 4 3 4 3 3 3 1 3 4 5 6 6 6 8 6 7 11 13 10 18 12 11 18 16 14 13 12 12 11 10 9 8 7 7
3 4 4 4 4 4 4 3 3 2 2 1 2 3 3 3 2 2 3 4 7 4 5 3 4 5 5 11 9 6 8 6 7 15 15 14 13 13 12 11 10 11 10
3 3 4 4 4 4 3 3 3 3 3 3 2 3 4 2 3 1 2 4 7 9 10 16 9 6 8 5 6 2 6 5 4 12 14 13 13 12 12 10 14 13 13
1 2 2 3 3 3 3 4 4 4 4 4 4 5 4 4 3 3 2 4 2 7 12 12 10 7 5 5 6 3 0 1 3 7 14 15 13 13 14 15 15 14 13
2 3 4 3 3 3 4 3 2 3 3 3 3 4 5 5 5 4 4 6 7 9 10 11 11 8 5 4 4 3 2 3 3 3 7 8 12 17 20 19 17 17 17
4 3 2 1 2 2 2 3 2 1 1 1 1 0 2 5 7 6 4 7 10 11 10 10 8 6 3 6 6 4 3 0 3 6 4 3 7 7 8 16 16 20 18
4 4 5 4 4 3 5 5 3 1 3 4 3 3 4 8 7 9 11 14 12 11 12 7 5 5 1 2 2 3 4 4 3 3 6 6 6 5 6 6 15 19 18
3 4 5 6 6 4 7 4 2 1 2 4 4 3 3 5 9 6 11 13 13 14 11 9 9 8 7 8 6 8 6 5 5 4 3 3 2 4 5 6 14 17 18
3 4 6 6 5 5 10 6 4 4 5 5 7 6 2 3 4 7 9 7 9 6 4 5 4 4 3 5 9 6 6 4 2 3 4 5 3 5 6 5 12 14 14
1 4 2 5 3 5 11 9 5 3 4 4 5 2 4 4 2 1 3 5 6 7 10 13 12 11 14 12 7 4 3 3 2 3 2 3 4 4 5 7 6 10 12
0 1 4 3 5 5 9 8 5 2 2 1 5 3 6 7 6 6 4 4 4 3 3 4 4 6 6 5 7 5 4 4 3 4 5 4 3 2 4 4 4 4 4
Wind_Direction
200 181 193 186 200 200 208 216 158 175 142 151 136 112 154 201 289 92 163 180 179 177 188 194 190 196 201 193 187 185 184 177 178 173 170 167 164 159 161 154 153 152 149
216 188 182 187 199 203 208 239 160 164 164 155 149 130 156 177 161 134 145 151 130 116 116 134 123 153 201 202 187 192 190 185 182 181 179 179 180 181 177 175 169 166 153
194 203 199 201 201 193 157 126 146 247 133 117 122 170 152 165 161 168 147 118 109 115 109 109 102 101 111 104 120 133 148 168 175 176 171 171 176 179 182 170 162 119 137
203 191 215 222 221 152 177 156 147 63 105 148 158 126 144 155 161 151 130 129 138 131 122 118 109 112 104 106 113 114 116 120 122 119 120 128 136 128 115 114 116 111 106
197 175 194 248 282 220 166 174 166 158 126 116 120 113 116 139 134 134 135 142 143 139 134 133 125 121 110 109 113 115 117 120 119 117 114 109 109 110 109 106 104 101 98
186 181 187 224 235 303 220 160 170 183 170 141 117 104 117 136 138 148 144 140 142 130 135 126 127 131 125 114 116 122 127 123 122 119 116 112 111 108 109 107 104 105 102
185 179 187 203 194 218 236 195 159 164 77 131 111 81 66 110 127 142 149 157 154 149 155 149 148 139 130 126 133 134 133 129 126 123 124 122 124 121 117 111 110 107 103
199 186 186 198 200 190 255 214 161 156 120 182 128 116 146 142 155 179 171 172 164 159 161 166 153 140 128 122 136 145 144 138 133 131 128 126 124 126 124 122 118 113 108
337 230 192 184 192 166 204 222 183 163 160 245 173 141 129 207 149 177 195 187 164 166 178 175 165 147 140 136 139 148 145 143 142 138 135 133 133 131 123 119 117 115 114
358 338 294 194 175 176 177 191 218 181 145 176 285 246 157 146 158 165 203 194 184 188 175 162 157 148 146 138 145 143 148 151 149 147 145 139 138 134 129 125 122 121 120
323 327 325 47 35 359 296 196 245 241 191 169 168 165 216 176 140 136 182 180 190 200 175 156 152 149 153 152 142 151 149 151 156 154 151 145 141 135 134 131 126 123 123
297 308 347 310 299 269 349 325 296 264 253 244 234 195 181 174 187 152 139 184 190 179 171 156 147 149 149 146 154 158 155 143 118 144 153 146 144 147 146 142 143 137 129
19 20 352 293 274 148 294 273 301 289 293 265 256 246 255 251 219 155 134 166 167 135 138 158 163 147 150 152 164 160 160 150 146 137 138 148 158 163 160 152 156 146 148
17 6 30 19 14 14 24 1 291 293 285 263 256 255 240 217 196 247 157 154 158 133 171 177 167 158 154 151 163 162 161 165 165 162 152 158 170 179 177 170 177 182 171
10 14 13 10 19 16 6 1 332 337 320 336 309 281 246 192 170 182 195 181 172 169 195 202 157 175 161 156 166 156 160 175 177 172 168 173 181 192 194 196 207 208 205
26 21 21 17 16 21 352 350 350 292 5 12 359 357 319 295 211 187 172 196 204 172 186 178 186 167 161 153 166 159 166 175 178 182 186 188 192 200 204 218 224 231 234
58 46 23 22 24 25 4 6 358 354 98 129 60 75 44 351 88 252 219 169 210 173 160 25 97 98 97 134 141 139 174 170 186 188 193 200 205 206 212 222 238 234 234
46 79 73 51 25 15 28 65 38 27 26 53 58 71 67 93 57 43 215 239 180 191 149 137 129 118 104 51 76 130 142 189 190 209 202 203 209 213 220 219 231 231 230
58 76 95 107 113 102 73 40 69 54 51 45 47 70 59 73 48 39 69 135 132 121 140 138 124 110 110 117 92 351 268 245 188 205 206 216 216 220 226 225 229 230 231
65 43 36 36 48 95 103 105 77 69 52 38 37 59 67 56 62 51 61 96 123 124 126 123 123 118 114 110 114 142 354 358 308 305 221 219 221 229 229 228 229 233 232
173 160 135 17 12 79 118 111 97 85 175 196 231 131 92 97 76 62 57 65 114 113 102 96 100 114 117 160 168 158 153 58 272 234 240 234 227 232 233 237 241 243 240
169 181 189 192 203 245 187 166 172 229 278 277 269 266 215 167 139 118 98 74 74 94 106 106 80 112 138 78 95 173 196 199 235 241 232 245 206 223 230 220 228 232 235
208 225 222 186 215 213 193 177 214 333 298 283 268 256 237 158 152 139 123 115 106 110 108 133 152 166 175 202 204 218 210 211 206 235 139 252 218 255 241 244 229 231 233
239 241 215 209 217 175 187 180 206 285 286 268 259 248 166 102 106 139 139 133 126 139 150 163 192 199 216 202 201 200 193 206 248 244 157 249 217 257 268 246 253 260 263
49 16 275 188 169 153 174 203 222 297 305 309 319 74 52 32 245 127 111 143 164 176 200 195 204 192 178 176 175 141 182 176 261 256 183 190 264 258 267 265 263 259 246
177 8 35 69 115 150 189 207 200 227 307 47 19 290 243 251 266 250 214 191 183 216 187 166 182 191 186 205 190 187 177 189 190 309 223 177 243 216 293 233 226 256 264